User: anonymous   Login
Location: Unspecified
(0.0000°N, 0.0000°E)
Time: 04:17:22
(UTC+00:00)
Language:

STARLINK-31474 - Orbit

View from above orbital plane
View from above orbital plane
View from above satellite
View from above satellite

Ground track
Ground track

The orbit is defined by the following mean orbital elements,

1 59304U          26145.32497703 +.00000000 +00000-0 -61763-4 0 00005
2 59304  43.0019 151.0818 0000999 261.0264  99.0475 15.27589083    04
Epoch (UTC): 25 May 2026 07:47:58
Eccentricity: 0.0000999
inclination: 43.0019°
perigee height: 482 km
apogee height: 484 km
right ascension of ascending node: 151.0818°
argument of perigee: 261.0264°
revolutions per day: 15.27589083
mean anomaly at epoch: 99.0475°

The dashed part of the orbit path shows where the satellite is in the earth's shadow,  

DLR